Location: Bovenkerk
(52.2915°N, 4.8336°E)
Time: 04:36:15
(UTC+00:00)

STARLINK-1200 - Pass Details

Date: 09 April 2020
Orbit: 549 x 550 km, 53.0° (Epoch: 01 June)

Event Time Altitude Azimuth Distance (km) Brightness Sun altitude
Rises 19:28:31 0° 285° (WNW) 2,788 9.2 -9.3°
Reaches altitude 10° 19:30:47 10° 283° (WNW) 1,890 7.8 -9.6°
Maximum altitude 19:35:04 69° 201° (SSW) 620 3.8 -10.2°
Enters shadow 19:38:33 15° 119° (ESE) 1,577 5.3 -10.7°
